#timestamp,LO_Frequency,Hit,StdDev 
1617404855.2,286047016.3,P
1617404875.1,286047016.6,P
1617404876.0,286047016.6,P
1617404895.8,286047017.1,Y
1617404915.6,286046999.9,P
1617404935.5,286047000.6,N
1617404955.3,286047000.3,N
1617404975.2,286047002.5,N
1617404995.9,286047000.1,N
1617405015.7,286047002.2,N
1617405035.6,286047003.9,N
1617405055.4,286047002.6,N
1617405075.2,286047003.8,N
1617405095.1,286047003.7,N
1617405096.0,286047003.7,N
1617405115.8,286047001.7,N
1617405135.7,286047001.5,N
1617405155.5,286047003.7,N
1617405175.3,286047003.2,N
1617405195.2,286047005.1,N
1617405215.9,286047007.1,N
1617405235.7,286047007.4,N
1617405255.6,286047004.5,N
1617405275.4,286047004.7,N
1617405295.2,286047007.8,N
1617405315.1,286047008.1,N
1617405316.0,286047008.1,N
1617405335.8,286047009.1,N
1617405355.7,286047009.0,N
1617405375.5,286047007.8,N
1617405395.3,286047007.8,N
1617405415.2,286047010.5,N
1617405435.0,286047009.3,N
1617405435.9,286047009.3,N
1617405455.8,286047011.4,Y
1617405475.6,286047006.1,P
1617405495.4,286047007.7,P
1617405515.3,286047008.6,P
1617405535.1,286047006.2,Y
1617405555.9,286047002.2,P
1617405575.7,286047001.3,N
1617405595.5,286047001.3,N
1617405615.4,286047001.3,N
1617405635.2,286047001.6,N
1617405655.0,286047003.1,N
1617405655.9,286047003.1,N
1617405675.8,286047005.6,Y
1617405695.6,286047002.6,P
1617405715.5,286047004.0,P
1617405735.3,286047003.4,P
1617405755.1,286047005.7,Y
1617405775.9,286047001.0,P
1617405795.7,286046998.3,N
1617405815.5,286046998.5,N
1617405835.4,286047001.0,N
1617405855.2,286047001.3,N
1617405875.1,286047002.0,N
1617405876.0,286047002.0,N
1617405895.8,286047004.2,N
1617405915.6,286047003.1,N
1617405935.5,286047004.2,N
1617405955.3,286047004.3,N
1617405975.1,286047005.6,N
1617405995.9,286047005.7,N
1617406015.7,286047004.8,N
1617406035.6,286047002.9,N
1617406055.4,286047006.0,N
1617406075.2,286047007.5,Y
1617406095.1,286047004.3,P
1617406096.0,286047004.3,P
1617406115.8,286047003.7,P
1617406135.7,286047001.5,N
1617406155.5,286047002.9,N
1617406175.3,286047004.4,Y
1617406195.2,286047000.4,P
1617406215.0,286047002.8,N
1617406215.9,286047002.8,N
1617406235.7,286047002.4,N
1617406255.6,286047001.7,N
1617406275.4,286047004.3,Y
1617406295.3,286047002.2,P
1617406315.1,286047002.4,P
1617406316.0,286047002.4,P
1617406335.8,286046999.8,N
1617406355.7,286047002.6,N
1617406375.5,286047002.2,N
1617406395.3,286047002.4,N
1617406415.2,286047001.4,N
1617406435.0,286047003.9,Y
1617406435.9,286047003.9,P
1617406455.8,286047001.6,N
1617406475.6,286047001.8,N
1617406495.4,286047003.3,Y
1617406515.3,286047002.1,P
1617406535.1,286047004.1,P
1617406555.9,286047001.5,N
1617406575.7,286047002.6,N
1617406595.5,286047002.3,N
1617406615.4,286047000.3,N
1617406635.2,286047000.2,N
1617406655.0,286047001.9,N
1617406655.9,286047001.9,N
1617406675.8,286047003.4,Y
1617406695.6,286047003.9,P
1617406715.5,286047003.2,P
1617406735.3,286047003.2,P
1617406755.1,286047003.6,Y
1617406775.9,286047000.6,P
1617406795.7,286047001.9,N
1617406815.6,286047002.3,N
1617406835.4,286047002.3,N
1617406855.2,286047000.2,N
1617406875.1,286047002.4,N
1617406876.0,286047002.4,N
1617406895.8,286047002.7,N
1617406915.6,286047003.1,Y
1617406935.5,286047002.3,P
1617406955.3,286047004.2,P
1617406975.2,286047001.4,N
1617406995.9,286047001.5,N
1617407015.7,286047001.7,N
1617407035.6,286047002.4,N
1617407055.4,286047003.9,Y
1617407075.3,286047002.3,P
1617407095.1,286047001.8,P
1617407096.0,286047001.8,P
1617407115.8,286047005.8,Y
1617407135.7,286047001.8,P
1617407155.5,286047001.8,P
1617407175.3,286047002.0,P
1617407195.2,286047002.4,Y
1617407215.0,286046998.5,P
1617407215.9,286046998.5,N
1617407235.8,286046998.3,N
1617407255.6,286046998.1,N
1617407275.4,286047002.6,N
1617407295.3,286046999.7,N
1617407315.1,286047001.8,N
1617407335.9,286047002.0,N
1617407355.7,286047001.4,N
1617407375.5,286047004.2,N
1617407395.4,286047004.0,N
1617407415.2,286047005.8,N
1617407435.0,286047003.1,N
1617407435.9,286047003.1,N
1617407455.8,286047005.6,N
1617407475.6,286047003.2,N
1617407495.5,286047003.4,N
1617407515.3,286047003.7,N
1617407535.1,286047003.0,N
1617407555